Regional Weather Roundup
Issued by NWS

Home | Current Version | Previous Version | Text Only | Print | Product List | Glossary Off
Versions: 1 2 3 4 5 6 7 8 9 10 11 12 13 14 15 16 17 18 19 20 21 22 23 24 25 26 27 28 29 30 31 32 33 34 35 36 37 38 39 40 41 42 43 44 45 46 47 48 49 50

000
ASUS43 KDTX 241101
RWRMI
MICHIGAN HOURLY REGIONAL WEATHER ROUNDUP
NATIONAL WEATHER SERVICE DETROIT/PONTIAC MI
700 AM EDT THU JUL 24 2014

NOTE: "FAIR" INDICATES FEW OR NO CLOUDS BELOW 12,000 FEET WITH NO
SIGNIFICANT WEATHER AND/OR OBSTRUCTION TO VISIBILITY.

MIZ047>049-052>055-059>063-066>070-074>076-081>083-241200-
SOUTHEAST LOWER MICHIGAN

CITY           SKY/WX    TMP DP  RH WIND       PRES   REMARKS
ADRIAN         CLEAR     54  50  86 N7        30.12R
ALMA           CLEAR     50  48  92 N3        30.15R
ANN ARBOR      CLEAR     58  50  75 N7        30.11R
BAD AXE        FOG       50  49  97 CALM      30.13R VSB 1/2
CARO           CLEAR     54  54  98 CALM      30.12R
DETROIT CITY   CLEAR     60  52  74 N9        30.10R
DETROIT        PTCLDY    57  51  80 NW7       30.11R
FLINT          CLEAR     56  51  84 CALM      30.13R
GROSSE ILE     CLEAR     57  54  88 N5        30.09R
HILLSDALE      CLOUDY    57  53  86 N5        30.12R
HOWELL         CLEAR     53  51  95 CALM      30.13R

CITY           SKY/WX    TMP DP  RH WIND       PRES   REMARKS
JACKSON        CLOUDY    54  52  93 N3        30.13R
LAMBERTVILLE   CLEAR     54  50  87 CALM      30.10S
LANSING        CLEAR     54  50  86 N6        30.14R
LAPEER         FAIR      49  48  95 CALM      30.12S
MASON          PTCLDY    52  51  95 CALM      30.14R
MONROE         CLEAR     54  50  87 CALM      30.08R
MT. CLEMENS    CLEAR     56  53  91 N9        30.09R
PONTIAC        PTCLDY    56  51  84 N6        30.11R
PORT HOPE        N/A     61  55  81 CALM      30.11R
PORT HURON     CLEAR     52  52 100 NW3       30.11R
TRI CITIES     CLEAR     54  48  80 NW5       30.15R
TROY           CLEAR     57  53  86 N7        30.12R
SAGINAW HB     CLEAR     54  52  94 NW5       30.12S
$$
MIZ043>046-050>051-056>058-064>065-071>073-077>080-241200-
SOUTHWEST LOWER MICHIGAN

CITY           SKY/WX    TMP DP  RH WIND       PRES   REMARKS
BATTLE CREEK   MOCLDY    58  53  84 N7        30.14R
BENTON HARBOR  PTCLDY    55  52  89 CALM      30.14R
BIG RAPIDS     CLEAR     50  49  99 NW3       30.16R
COLDWATER      CLOUDY    59  56  90 NE7       30.13R
FREMONT        FAIR      49  49  98 CALM      30.16S
HOLLAND        CLEAR     57  51  80 NE3       30.16R
GRAND RAPIDS   PTCLDY    55  51  86 N3        30.15R
IONIA          FAIR      53  50  90 NE3       30.14R
KALAMAZOO      PTCLDY    58  54  86 N6        30.15R
LUDINGTON      FOG       44  43  97 CALM      30.18R VSB 1/2
MARSHALL       CLOUDY    56  54  94 N5        30.13R
MOUNT PLEASANT CLEAR     51  49  92 CALM      30.14S
MUSKEGON       CLEAR     55  49  80 N3        30.16R
SOUTH HAVEN    CLEAR     55  54  97 NE3       30.14S
$$
MIZ016>042-241200-
NORTHERN LOWER MICHIGAN

CITY           SKY/WX    TMP DP  RH WIND       PRES   REMARKS
ALPENA         CLEAR     50  48  93 W5        30.14R
BEAVER ISLAND  CLEAR     44  44 100 CALM      30.17S
BELLAIRE       PTCLDY    44  43  95 CALM      30.18R FOG
CADILLAC       CLEAR     41  41 100 CALM      30.17R
CHARLEVOIX     CLEAR     52  51  93 CALM      30.19S
FRANKFORT      CLEAR     44  42  89 CALM      30.18S
GAYLORD        CLEAR     44  42  93 CALM      30.17R
GRAYLING       CLEAR     48  48 100 W5        30.17S
HARBOR SPRINGS CLEAR     50  47  90 CALM      30.16S
HOUGHTON LAKE  CLEAR     45  44  97 CALM      30.16S
MANISTEE       PTCLDY    45  41  87 CALM      30.18S
OSCODA         CLEAR     53  48  84 CALM      30.13R
PELLSTON       CLEAR     45  44  97 CALM      30.16S
ROGERS CITY    CLEAR     52  50  95 W3        30.15S
TRAVERSE CITY  CLEAR     49  46  90 CALM      30.16S
$$
MIZ007>008-015-241200-
EASTERN UPPER MICHIGAN

CITY           SKY/WX    TMP DP  RH WIND       PRES   REMARKS
KINROSS        CLEAR     45  45 100 W5        30.14S
MACKINAC ISLAN CLEAR     52  47  82 N7        30.15S
NEWBERRY       CLEAR     42  41  97 W6        30.15S
S. S. MARIE    CLEAR     51  48  89 W6        30.13S
MUNISING         N/A     46  41  82 S8        30.16R
$$
MIZ004>006-011>014-085-241200-
CENTRAL UPPER MICHIGAN

CITY           SKY/WX    TMP DP  RH WIND       PRES   REMARKS
MANISTIQUE     CLEAR     47  44  90 W5        30.17R
ESCANABA       CLEAR     46  43  87 NW5       30.18R
MENOMINEE      CLEAR     48  45  87 CALM      30.19R
$$
MIZ001>003-009>011-084-241200-
WESTERN UPPER MICHIGAN

CITY           SKY/WX    TMP DP  RH WIND       PRES   REMARKS
IRON MOUNTAIN  CLEAR     43  40  89 NW3       30.20R
HOUGHTON       CLEAR     53  47  79 NW7       30.16S
COPPER HARBOR    N/A     59  48  67 NW6       30.14R
$$

ABBREVIATIONS USED IN REMARKS
   TC - TEMPERATURE IN CELSIUS
  WCI - WIND CHILL INDEX
   HX - HEAT INDEX
  VSB - VISIBILITY



USA.gov is the U.S. government's official web portal to all federal, state and local government web resources and services.